433  
ASUS46 KSGX 260704  
RWRSGX  
 
SAN DIEGO HOURLY WEATHER ROUNDUP  
NATIONAL WEATHER SERVICE SAN DIEGO CA  
1200 AM PDT MON JUN 26 2017  
 
NOTE: "FAIR" INDICATES FEW OR NO CLOUDS BELOW 12,000 FEET WITH NO  
SIGNIFICANT WEATHER AND/OR S TO VISIBILITY
.  
 
CAZ042-043-060-061-PZZ750-775-260800-  
 
GREATER SAN DIEGO AREA  
 
CITY SKY/WX TMP DP RH WIND PRES REMARKS
 
SAN DIEGO AP PTCLDY 67 64 90 N3 29.91F  
NATIONAL CITY N/A 68 63 84 CALM 29.91R  
CHULA VISTA N/A 65 63 93 CALM 29.83S  
IMPERIAL BEACH PTCLDY 60 58 92 CALM 29.91S FOG  
BROWN FIELD CLEAR 66 61 84 SW3 29.91S  
MIRAMAR MCAS CLEAR 68 59 73 N6 29.90F  
MONTGOMERY FLD CLEAR 70 59 68 N6 29.90F  
GILLESPIE FLD FAIR 73 61 64 N3 29.91R  
 

 
 
NORTH SAN DIEGO COUNTY  
 
CITY SKY/WX TMP DP RH WIND PRES REMARKS
 
CAMP PENDLETON CLEAR 59 59 100 CALM 29.90S FOG  
OCEANSIDE AP CLEAR 62 59 90 CALM 29.90R  
OCEANSIDE HBR N/A 63 61 93 CALM 29.93R  
VISTA N/A 65 59 83 CALM 29.88R  
CARLSBAD CLEAR 66 62 87 CALM 29.90S  
DEL MAR N/A 63 61 94 CALM 29.92F  
LA JOLLA SCRIP N/A 64 63 97 N1 29.90S  
FALLBROOK N/A 66 64 93 CALM 29.90S  
ESCONDIDO N/A 74 61 63 CALM 29.91R  
SAN MARCOS N/A 68 60 74 CALM 29.91S  
POWAY N/A 69 60 74 CALM 29.90S  
 

 
 
EAST SAN DIEGO COUNTY  
 
CITY SKY/WX TMP DP RH WIND PRES REMARKS
 
RAMONA CLEAR 67 58 72 CALM 29.95S  
SANTEE LAKES N/A 71 61 70 CALM 29.88S  
LA MESA N/A 70 62 76 CALM 29.82S  
JAMUL N/A 71 62 73 CALM 29.89S  
DESCANSO N N/A 84 37 19 CALM 29.81S  
CAMPO N/A 70 47 43 CALM 30.00S  
 

 
 
ORANGE COUNTY AND THE LOS ANGELES BASIN  
 
CITY SKY/WX TMP DP RH WIND PRES REMARKS
 
JOHN WAYNE AP CLEAR 67 62 84 SW5 29.90R  
LAGUNA BEACH N/A N/A N/A N/A E1 29.84F  
LAKE FOREST FR N/A 74 48 40 CALM 29.76S  
HUNTINGTON BCH N/A 64 62 93 CALM 29.91S  
LOS ALAMITOS FAIR 64 60 86 CALM 29.89S  
FULLERTON CLEAR 70 61 73 CALM 29.88S  
LONG BEACH CLEAR 70 60 70 CALM 29.89S  
L.A. AP CLEAR 67 60 78 S3 29.89S  
L.A. DOWNTOWN CLEAR 70 60 70 CALM 29.89S  
 

 
 
THE INLAND EMPIRE  
 
CITY SKY/WX TMP DP RH WIND PRES REMARKS
 
CORONA CLEAR 68 58 70 CALM 29.91S  
CHINO CLEAR 75 58 55 CALM 29.92S  
ONTARIO CLEAR 77 59 53 CALM 29.92S  
SAN BERNARDINO FAIR 81 53 38 S3 29.94S  
RIVERSIDE AP CLEAR 78 60 53 CALM 29.92S  
MORENO VALLEY N/A 77 55 46 CALM 28.07S  
MARCH ARB CLEAR 71 53 52 CALM 29.95S  
HORSETHIEF CYN N/A 75 43 31 CALM 29.89S  
PERRIS N/A 80 60 50 NE5 29.93F  
HEMET EAST N/A 80 35 19 CALM 29.94R  
FRENCH VALLEY FAIR 79 55 44 N5 29.95S  
TEMECULA N/A 78 58 49 CALM 29.96S  
 

 
 
SAN BERNARDINO AND RIVERSIDE COUNTY MOUNTAINS  
 
CITY SKY/WX TMP DP RH WIND PRES REMARKS
 
BIG BEAR AP CLEAR 64 32 29 SW6 30.34S  
PINE COVE N/A 73 36 26 NW3 29.86S  
 

 
 
SOUTHERN DESERT INCLUDING THE COACHELLA VALLEY  
 
CITY SKY/WX TMP DP RH WIND PRES REMARKS
 
PALM SPRINGS CLEAR 100 40 12 NW15G24 29.80S HX 95  
THOUSAND PALMS N/A 99 42 13 NW8 29.76R HX 95  
PALM DESERT N/A 98 47 17 CALM 29.57S  
THERMAL CLEAR 97 41 14 NW9 29.73R  
BLYTHE CLEAR 98 55 23 SE5 29.77S HX 96  
IMPERIAL AP CLEAR 91 46 21 NW8 29.76R  
EL CENTRO NAS CLEAR 95 32 11 W8 29.78R  
MEXICALI CLEAR 82 66 57 SE8 29.79R  
 

 
 
UPPER DESERT  
 
CITY SKY/WX TMP DP RH WIND PRES REMARKS
 
VICTORVILLE AP CLEAR 77 34 20 W7 30.05S  
HESPERIA N/A 86 39 18 W2 29.96R  
PALMDALE CLEAR 84 38 19 W9 30.02F  
LANCASTER CLEAR 78 38 23 W9 30.01S  
EDWARDS AFB CLEAR 79 37 21 W8 29.97S  
DAGGETT CLEAR 92 32 12 SW18 29.93S  
29 PALMS N CLEAR 92 25 9 NW14 30.01R  
 

 
 
REGIONAL REPORTS  
 
CITY SKY/WX TMP DP RH WIND PRES REMARKS
 
SANTA BARBARA CLEAR 62 61 96 SE6 29.88R  
SANDBERG CLEAR 81 21 11 W10 30.19F  
LAS VEGAS NV CLEAR 98 19 6 SW7 29.86R  
PHOENIX AZ PTCLDY 100 46 16 S5 29.81S HX 96  
TIJUANA CLEAR 66 57 72 CALM 29.92S  
ENSENADA NW N/A 64 32 30 CALM 29.87F  
 

 
 
OFFSHORE ISLANDS  
 
CITY SKY/WX TMP DP RH WIND PRES REMARKS
 
CATALINA ARPT CLEAR 86 28 12 NW12 29.98S  
SAN NICOLAS IS CLEAR 65 45 48 W25 29.93F  
 

 
 
MARINE AND OFFSHORE BUOY REPORTS  
 
STATION/POSITION SKY/WX TEMP WIND PRES VSBY SWELL
 
AIR SEA DIR/SP/G HT/PER/DIR  
(F) (DEG/KT/KT) (MB) (MI) (FT/S/D)  
TANNER BANKS 61 62 310/ 21/ 25 1012.8 3/240/14  
S CLEMENTE BASIN 64 310/ 2/ 4 1012.7 5/230/13  
SAN NICOLAS IS. 59 N/A 3/210/15  
SO. S. ROSA ISLA 57 56 310/ 17/ 21 1013.7 2/220/14  
W. S. BARBARA CH 57 54 310/ 23/ 31 1013.5R 2/210/14  
M. S. BARBARA CH 64 61 240/ 14/ 19 1012.5R 2/250/13  
S. MONICA BASIN 65 64 320/ 6/ 8 1012.0S 5/270/ 6  
S PEDRO CHANNEL 65 N/A 2/170/13  
CMP PENDLETON NS 63 N/A 3/220/17  
OCEANSIDE OFFSHR 65 N/A 2/210/13  
TORREY PINES OTR 67 N/A 2/220/13  
SAN DIEGO BAY 66 1012.9R  
POINT LOMA SOUTH 65 N/A 2/210/13  
 

 
 
 
 
CLICK HERE TO GO TO PREVIOUS BULLETINS.

The Nexlab CA Page Main Text Page